Regional Weather Roundup
Issued by NWS Northern Indiana

Home | Current Version | Previous Version | Graphics & Text | Print | Product List | Glossary On
Versions: 1 2 3 4 5 6 7 8 9 10 11 12 13 14 15 16 17 18 19 20 21 22 23 24 25 26 27 28 29 30 31 32 33 34 35 36 37 38 39 40 41 42 43 44 45 46 47 48 49 50
000
ASUS43 KIWX 071210
RWRIWX

KIWX WEATHER ROUNDUP
NATIONAL WEATHER SERVICE NORTHERN INDIANA
700 AM EST SUN FEB 07 2016

NOTE: "FAIR" INDICATES FEW OR NO CLOUDS BELOW 12,000 FEET WITH NO
SIGNIFICANT WEATHER AND/OR OBSTRUCTIONS TO VISIBILITY.

* THESE STATIONS ARE NOT UNDER NWS QUALITY CONTROL. THEY ALSO MAY NOT
  REPORT WEATHER SUCH AS PRECIPITATION OR FOG.

INZ001>027-071300-
NORTHERN INDIANA

CITY           SKY/WX    TMP DP  RH WIND       PRES   REMARKS
GARY*          PTCLDY    41  27  56 S8G20     29.92F
VALPARAISO     CLOUDY    36  29  75 S10       29.94F
6HR MIN TEMP:  32; 6HR MAX TEMP:  36;

MICHIGAN CITY* CLOUDY    37  30  75 S16       29.94S
LAPORTE*       CLOUDY    36  32  86 S7        29.94F
6HR MIN TEMP:  33; 6HR MAX TEMP:  36;

SOUTH BEND     CLOUDY    35  27  72 S10       29.94F WCI  27
6HR MIN TEMP:  31; 6HR MAX TEMP:  35;

GOSHEN         CLOUDY    35  26  69 S10       29.96F WCI  27
6HR MIN TEMP:  32; 6HR MAX TEMP:  35;

MONTICELLO*    CLOUDY    35  24  64 S9        29.98F WCI  27
6HR MIN TEMP:  32; 6HR MAX TEMP:  35;

LOGANSPORT*    CLOUDY    32  25  74 S8        29.99F WCI  25
ROCHESTER*     CLOUDY    36  25  64 SW10      29.98F
WARSAW*        CLOUDY    34  27  75 S3        29.97F
FORT WAYNE     MOCLDY    33  26  75 SW10      30.01F WCI  25
6HR MIN TEMP:  30; 6HR MAX TEMP:  33;

HUNTINGTON*    CLOUDY    34  22  61 SW8       30.00F WCI  27
6HR MIN TEMP:  32; 6HR MAX TEMP:  35;

PERU/GRISSOM   MOCLDY    33  26  75 SW12      29.97F WCI  25
6HR MIN TEMP:  31; 6HR MAX TEMP:  35;

MARION*        PTCLDY    32  19  58 S8        30.02F WCI  25
6HR MIN TEMP:  -1; 6HR MAX TEMP:  59;


$$
INZ028>050-071300-
CENTRAL INDIANA

CITY           SKY/WX    TMP DP  RH WIND       PRES   REMARKS
LAFAYETTE      CLOUDY    35  25  66 SW6       30.00F WCI  30
6HR MIN TEMP:  30; 6HR MAX TEMP:  35;

KOKOMO*          N/A     36  23  60 SW12      30.01F
6HR MIN TEMP:  34; 6HR MAX TEMP:  36;

MUNCIE*        CLOUDY    37  23  56 SW9       30.03F
6HR MIN TEMP:  36; 6HR MAX TEMP:  39;

INDIANAPOLIS   CLOUDY    33  22  63 SW9       30.04F WCI  25
6HR MIN TEMP:  32; 6HR MAX TEMP:  36;


$$
MIZ043>046-050>051-056>058-064>065-071>073-077>080-071300-
SOUTHWEST LOWER MICHIGAN

CITY           SKY/WX    TMP DP  RH WIND       PRES   REMARKS
BATTLE CREEK   CLOUDY    34  27  75 S10       29.93F WCI  26
6HR MIN TEMP:  31; 6HR MAX TEMP:  34;

BENTON HARBOR  MOCLDY    37  28  70 S9        29.91F
6HR MIN TEMP:  34; 6HR MAX TEMP:  38;

COLDWATER*     CLOUDY    34  27  74 S3        29.95F
6HR MIN TEMP:  32; 6HR MAX TEMP:  34;

HILLSDALE*     CLOUDY    30  26  82 S6        29.96F WCI  24
6HR MIN TEMP:  29; 6HR MAX TEMP:  31;

HOLLAND        CLOUDY    35  29  78 S9        29.89F WCI  28
6HR MIN TEMP:  31; 6HR MAX TEMP:  36;

GRAND RAPIDS   CLOUDY    34  28  79 S12       29.89F WCI  25
6HR MIN TEMP:  31; 6HR MAX TEMP:  34;

KALAMAZOO      PTCLDY    34  27  75 S10       29.93F WCI  26
6HR MIN TEMP:  31; 6HR MAX TEMP:  34;

STURGIS*       CLOUDY    33  28  81 S8        29.94F WCI  25
6HR MIN TEMP:  30; 6HR MAX TEMP:  33;

THREE RIVERS*  MOCLDY    33  29  86 S7        29.94F WCI  27
6HR MIN TEMP:  29; 6HR MAX TEMP:  33;


$$
OHZ001>008-015>018-024>025-071300-
NORTHWEST OHIO

CITY           SKY/WX    TMP DP  RH WIND       PRES   REMARKS
DEFIANCE       PTCLDY    33  25  72 S6        30.01F WCI  28
6HR MIN TEMP:  29; 6HR MAX TEMP:  33;

FINDLAY        PTCLDY    31  24  75 S8        30.03F WCI  23
6HR MIN TEMP:  28; 6HR MAX TEMP:  34;

TOLEDO EXPRESS CLOUDY    33  24  69 SW7       30.01F WCI  27
6HR MIN TEMP:  29; 6HR MAX TEMP:  33;

TOLEDO METCALF MOCLDY    33  25  72 SW9       30.03F WCI  25
6HR MIN TEMP:  26; 6HR MAX TEMP:  34;

LIMA           CLEAR     34  24  67 SW8       30.03F WCI  27
6HR MIN TEMP:  32; 6HR MAX TEMP:  35;


$$
AND FOR LAKE MICHIGAN COASTAL AND OPEN LAKE BUOY OBSERVATIONS

STATION/POSITION TEMP    WIND        PRES    VSBY  WAVE
                 AIR SEA DIR/SP/G                  HT/PER
                 (F)     (DEG/KT/KT) (MB)    (MI)  (FT/S)
CALUMET HARBOR    38     180/  6/ 10 1012.6F
MICHIGAN CITY     38     160/ 14/ 17   N/A
BURNS HARBOR      37     190/ 12/ 15 1014.2F
SAINT JOSEPH      37     150/  6/ 17 1013.2S

$$
&&



USA.gov is the U.S. government's official web portal to all federal, state and local government web resources and services.